User: anonymous   Login
Location: ??
(35.5052°N, 139.7262°E)
Time: 02:27:15
(UTC+00:00)
Language:

Cosmos 1092 Rocket - Orbit

View from above orbital plane
View from above orbital plane
View from above satellite
View from above satellite

Ground track
Ground track

The orbit data is extracted from the following two-line orbital elements,

1 11327U 79030B   21269.38099499  .00000050  00000-0  35067-4 0  9994
2 11327  82.9516 215.9489 0028866 124.5657 349.3266 13.76958214133900
Epoch (UTC): 26 September 2021 09:08:37
Eccentricity: 0.0028866
inclination: 82.9516°
perigee height: 953 km
apogee height: 996 km
right ascension of ascending node: 215.9489°
argument of perigee: 124.5657°
revolutions per day: 13.76958214
mean anomaly at epoch: 349.3266°
orbit number at epoch: 13390

The dashed part of the orbit path shows where the satellite is in the earth's shadow,  

DLR